Air Resources Laboratory banner image
Air Resources Laboratory web site National Oceanic and Atmospheric Administration (NOAA)

pa zone


SCZ050-WAZ558-NCZ071-TXZ119-213-PAZ071-DCZ001-FLZ074-172-MI076-
NYZ176-178-MAZ016-IL014-TNZ027-NJZ106-GAZ044-MD014-180700-

...Gateway Observations for Charleston International...

CITY           SKY/WX    TMP DP  RH WIND       PRES   REMARKS
Chas Airport   FAIR      78  76  93 SW10      29.94F
6HR MIN TEMP:  77; 6HR MAX TEMP:  81;

Seattle        CLOUDY    61  55  81 S8        30.08R
6HR MIN TEMP:  60; 6HR MAX TEMP:  85;

Charlotte      FAIR      74  72  93 W3        29.94S
6HR MIN TEMP:  73; 6HR MAX TEMP:  81;

Dallas DFW     CLEAR     89  61  38 S15       29.94S
6HR MIN TEMP:  89; 6HR MAX TEMP: 102;

Dallas Love    CLEAR     91  64  40 S8        29.95S HX  92
6HR MIN TEMP:  91; 6HR MAX TEMP: 103;

Philladelphia  FAIR      73  69  87 N12       29.83S
6HR MIN TEMP:  73; 6HR MAX TEMP:  77;

Wash National  FAIR      75  65  70 NW13      29.88R
6HR MIN TEMP:  74; 6HR MAX TEMP:  83; 6HR PCP: TRACE;

Baltimore      FAIR      71  70  96 W5        29.86R
6HR MIN TEMP:  70; 6HR MAX TEMP:  78; 6HR PCP:  0.01;

Miami          FAIR      83  76  79 S3        30.08F HX  91
6HR MIN TEMP:  82; 6HR MAX TEMP:  85;

Detroit        FAIR      65  53  65 N7        30.08R
6HR MIN TEMP:  65; 6HR MAX TEMP:  79;

Newark         CLOUDY    71  68  90 N5        29.81S
6HR MIN TEMP:  70; 6HR MAX TEMP:  74; 6HR PCP: TRACE;

Laguardia      MOCLDY    73  67  81 CALM      29.80S
6HR MIN TEMP:  73; 6HR MAX TEMP:  78; 6HR PCP:  0.01;

J F K          MOCLDY    73  71  93 N6        29.81F
6HR MIN TEMP:  71; 6HR MAX TEMP:  74; 6HR PCP: TRACE;

Boston Logan   CLOUDY    71  69  93 S6        29.76F
6HR MIN TEMP:  71; 6HR MAX TEMP:  75; 6HR PCP:  0.12;

Ft. Lauderdale FAIR      84  77  79 CALM      30.07F HX  94
6HR MIN TEMP:  83; 6HR MAX TEMP:  87;

Chicago O'Hare FAIR      68  57  68 NE8       30.11S
6HR MIN TEMP:  68; 6HR MAX TEMP:  75;

Chicago Midway FAIR      69  57  65 NE7       30.11S
6HR MIN TEMP:  69; 6HR MAX TEMP:  76;

Houston Bush   FAIR      83  77  82 SW5       30.01S HX  92
6HR MIN TEMP:  83; 6HR MAX TEMP:  95;

Houston Hobby  FAIR      81  79  94 SW5       30.01S HX  90
6HR MIN TEMP:  81; 6HR MAX TEMP:  92;

Nashville      FAIR      78  68  71 N7        30.02F
6HR MIN TEMP:  78; 6HR MAX TEMP:  90;

Atlanta        MOCLDY    79  73  82 NW7       29.99F
6HR MIN TEMP:  78; 6HR MAX TEMP:  85;



GAZ044-118-TXZ119-213-NCZ071-DCZ001-MDZ014-506-PAZ021-071-NJZ106-
NYZ176-178-MAZ106-OHZ011-021-055-MIZ076-KYZ091-ILZ014-INZ047-
MNZ060-ONZ431-180700-

...Gateway Observations for Savannah International...

CITY           SKY/WX    TMP DP  RH WIND       PRES   REMARKS
Savannah Arpt  FAIR      76  74  93 SW7       29.97F
6HR MIN TEMP:  75; 6HR MAX TEMP:  76; 6HR PCP: TRACE;

Atlanta        MOCLDY    79  73  82 NW7       29.99F
6HR MIN TEMP:  78; 6HR MAX TEMP:  85;

Charlotte      FAIR      74  72  93 W3        29.94S
6HR MIN TEMP:  73; 6HR MAX TEMP:  81;

Dallas DFW     CLEAR     89  61  38 S15       29.94S
6HR MIN TEMP:  89; 6HR MAX TEMP: 102;

Houston Bush   FAIR      83  77  82 SW5       30.01S HX  92
6HR MIN TEMP:  83; 6HR MAX TEMP:  95;

Wash National  FAIR      75  65  70 NW13      29.88R
6HR MIN TEMP:  74; 6HR MAX TEMP:  83; 6HR PCP: TRACE;

Wash Dulles    FAIR      71  66  84 NW7       29.91R
6HR MIN TEMP:  70; 6HR MAX TEMP:  81; 6HR PCP:  0.06;

Baltimore      FAIR      71  70  96 W5        29.86R
6HR MIN TEMP:  70; 6HR MAX TEMP:  78; 6HR PCP:  0.01;

Philadelphia   FAIR      73  69  87 N12       29.83S
6HR MIN TEMP:  73; 6HR MAX TEMP:  77;

Newark         CLOUDY    71  68  90 N5        29.81S
6HR MIN TEMP:  70; 6HR MAX TEMP:  74; 6HR PCP: TRACE;

Laguardia      MOCLDY    73  67  81 CALM      29.80S
6HR MIN TEMP:  73; 6HR MAX TEMP:  78; 6HR PCP:  0.01;

J F K          MOCLDY    73  71  93 N6        29.81F
6HR MIN TEMP:  71; 6HR MAX TEMP:  74; 6HR PCP: TRACE;

Boston         CLOUDY    71  69  93 S6        29.76F
6HR MIN TEMP:  71; 6HR MAX TEMP:  75; 6HR PCP:  0.12;

Pittsburg      FAIR      64  56  75 NW7       30.02S
6HR MIN TEMP:  64; 6HR MAX TEMP:  76;

Akron          FAIR      63  56  78 CALM      30.06R
6HR MIN TEMP:  62; 6HR MAX TEMP:  77;

Cleveland      MOCLDY    71  57  61 N7        30.06S
6HR MIN TEMP:  71; 6HR MAX TEMP:  77;

Cincinnati     MOCLDY    71  57  61 N7        30.05S
6HR MIN TEMP:  71; 6HR MAX TEMP:  84;

Columbus       FAIR      66  56  70 NW3       30.03S
Detroit        FAIR      65  53  65 N7        30.08R
6HR MIN TEMP:  65; 6HR MAX TEMP:  79;

Chicago O'Hare FAIR      68  57  68 NE8       30.11S
6HR MIN TEMP:  68; 6HR MAX TEMP:  75;

Minneapolis    FAIR      70  56  61 E5        30.12R
6HR MIN TEMP:  70; 6HR MAX TEMP:  78;

Indianapolis   FAIR      70  52  52 N10       30.08S
6HR MIN TEMP:  70; 6HR MAX TEMP:  82;

Toronto Canada CLEAR     64  52  63 N14       29.99R


SCZ050-WAZ558-NCZ071-TXZ119-213-PAZ071-DCZ001-FLZ074-172-MI076-
NYZ176-178-MAZ016-IL014-TNZ027-NJZ106-GAZ044-MD014-180700-

...Gateway Observations for Charleston International...

CITY           SKY/WX    TMP DP  RH WIND       PRES   REMARKS
Chas Airport   FAIR      78  76  93 SW10      29.94F
6HR MIN TEMP:  77; 6HR MAX TEMP:  81;

Seattle        CLOUDY    61  55  81 S8        30.08R
6HR MIN TEMP:  60; 6HR MAX TEMP:  85;

Charlotte      FAIR      74  72  93 W3        29.94S
6HR MIN TEMP:  73; 6HR MAX TEMP:  81;

Dallas DFW     CLEAR     89  61  38 S15       29.94S
6HR MIN TEMP:  89; 6HR MAX TEMP: 102;

Dallas Love    CLEAR     91  64  40 S8        29.95S HX  92
6HR MIN TEMP:  91; 6HR MAX TEMP: 103;

Philladelphia  FAIR      73  69  87 N12       29.83S
6HR MIN TEMP:  73; 6HR MAX TEMP:  77;

Wash National  FAIR      75  65  70 NW13      29.88R
6HR MIN TEMP:  74; 6HR MAX TEMP:  83; 6HR PCP: TRACE;

Baltimore      FAIR      71  70  96 W5        29.86R
6HR MIN TEMP:  70; 6HR MAX TEMP:  78; 6HR PCP:  0.01;

Miami          FAIR      83  76  79 S3        30.08F HX  91
6HR MIN TEMP:  82; 6HR MAX TEMP:  85;

Detroit        FAIR      65  53  65 N7        30.08R
6HR MIN TEMP:  65; 6HR MAX TEMP:  79;

Newark         CLOUDY    71  68  90 N5        29.81S
6HR MIN TEMP:  70; 6HR MAX TEMP:  74; 6HR PCP: TRACE;

Laguardia      MOCLDY    73  67  81 CALM      29.80S
6HR MIN TEMP:  73; 6HR MAX TEMP:  78; 6HR PCP:  0.01;

J F K          MOCLDY    73  71  93 N6        29.81F
6HR MIN TEMP:  71; 6HR MAX TEMP:  74; 6HR PCP: TRACE;

Boston Logan   CLOUDY    71  69  93 S6        29.76F
6HR MIN TEMP:  71; 6HR MAX TEMP:  75; 6HR PCP:  0.12;

Ft. Lauderdale FAIR      84  77  79 CALM      30.07F HX  94
6HR MIN TEMP:  83; 6HR MAX TEMP:  87;

Chicago O'Hare FAIR      68  57  68 NE8       30.11S
6HR MIN TEMP:  68; 6HR MAX TEMP:  75;

Chicago Midway FAIR      69  57  65 NE7       30.11S
6HR MIN TEMP:  69; 6HR MAX TEMP:  76;

Houston Bush   FAIR      83  77  82 SW5       30.01S HX  92
6HR MIN TEMP:  83; 6HR MAX TEMP:  95;

Houston Hobby  FAIR      81  79  94 SW5       30.01S HX  90
6HR MIN TEMP:  81; 6HR MAX TEMP:  92;

Nashville      FAIR      78  68  71 N7        30.02F
6HR MIN TEMP:  78; 6HR MAX TEMP:  90;

Atlanta        MOCLDY    79  73  82 NW7       29.99F
6HR MIN TEMP:  78; 6HR MAX TEMP:  85;



GAZ044-118-TXZ119-213-NCZ071-DCZ001-MDZ014-506-PAZ021-071-NJZ106-
NYZ176-178-MAZ106-OHZ011-021-055-MIZ076-KYZ091-ILZ014-INZ047-
MNZ060-ONZ431-180700-

...Gateway Observations for Savannah International...

CITY           SKY/WX    TMP DP  RH WIND       PRES   REMARKS
Savannah Arpt  FAIR      76  74  93 SW7       29.97F
6HR MIN TEMP:  75; 6HR MAX TEMP:  76; 6HR PCP: TRACE;

Atlanta        MOCLDY    79  73  82 NW7       29.99F
6HR MIN TEMP:  78; 6HR MAX TEMP:  85;

Charlotte      FAIR      74  72  93 W3        29.94S
6HR MIN TEMP:  73; 6HR MAX TEMP:  81;

Dallas DFW     CLEAR     89  61  38 S15       29.94S
6HR MIN TEMP:  89; 6HR MAX TEMP: 102;

Houston Bush   FAIR      83  77  82 SW5       30.01S HX  92
6HR MIN TEMP:  83; 6HR MAX TEMP:  95;

Wash National  FAIR      75  65  70 NW13      29.88R
6HR MIN TEMP:  74; 6HR MAX TEMP:  83; 6HR PCP: TRACE;

Wash Dulles    FAIR      71  66  84 NW7       29.91R
6HR MIN TEMP:  70; 6HR MAX TEMP:  81; 6HR PCP:  0.06;

Baltimore      FAIR      71  70  96 W5        29.86R
6HR MIN TEMP:  70; 6HR MAX TEMP:  78; 6HR PCP:  0.01;

Philadelphia   FAIR      73  69  87 N12       29.83S
6HR MIN TEMP:  73; 6HR MAX TEMP:  77;

Newark         CLOUDY    71  68  90 N5        29.81S
6HR MIN TEMP:  70; 6HR MAX TEMP:  74; 6HR PCP: TRACE;

Laguardia      MOCLDY    73  67  81 CALM      29.80S
6HR MIN TEMP:  73; 6HR MAX TEMP:  78; 6HR PCP:  0.01;

J F K          MOCLDY    73  71  93 N6        29.81F
6HR MIN TEMP:  71; 6HR MAX TEMP:  74; 6HR PCP: TRACE;

Boston         CLOUDY    71  69  93 S6        29.76F
6HR MIN TEMP:  71; 6HR MAX TEMP:  75; 6HR PCP:  0.12;

Pittsburg      FAIR      64  56  75 NW7       30.02S
6HR MIN TEMP:  64; 6HR MAX TEMP:  76;

Akron          FAIR      63  56  78 CALM      30.06R
6HR MIN TEMP:  62; 6HR MAX TEMP:  77;

Cleveland      MOCLDY    71  57  61 N7        30.06S
6HR MIN TEMP:  71; 6HR MAX TEMP:  77;

Cincinnati     MOCLDY    71  57  61 N7        30.05S
6HR MIN TEMP:  71; 6HR MAX TEMP:  84;

Columbus       MOCLDY    66  57  73 CALM      30.03S
Detroit        FAIR      65  53  65 N7        30.08R
6HR MIN TEMP:  65; 6HR MAX TEMP:  79;

Chicago O'Hare FAIR      68  57  68 NE8       30.11S
6HR MIN TEMP:  68; 6HR MAX TEMP:  75;

Minneapolis    FAIR      70  56  61 E5        30.12R
6HR MIN TEMP:  70; 6HR MAX TEMP:  78;

Indianapolis   FAIR      70  52  52 N10       30.08S
6HR MIN TEMP:  70; 6HR MAX TEMP:  82;

Toronto Canada CLEAR     64  52  63 N14       29.99R